Location: Chandrammap?lem
(16.9200°N, 81.0051°E)
Time: 06:15:17
(UTC+00:00)

IRS-1C - Pass Details

Date: 29 May 2024
Orbit: 814 x 815 km, 99.0° (Epoch: 19 June)

Event Time Altitude Azimuth Distance (km) Brightness Sun altitude
Rises 23:16:32 0° 16° (NNE) 3,331 8.0 -10.7°
Reaches altitude 10° 23:18:53 10° 19° (NNE) 2,398 7.3 -10.1°
Maximum altitude 23:24:10 68° 102° (ESE) 870 4.5 -9.0°
Drops below altitude 10° 23:29:26 10° 185° (S) 2,394 6.3 -7.9°
Sets 23:31:46 0° 188° (S) 3,325 7.0 -7.4°
